Total_Precipitation_Accumulation
0.01 0.02 0.03 0.06 0.13 0.29 0.38 0.32 0.37 0.43 0.57 0.61 0.64 0.74 0.78 0.84 1.30 2.12 1.34 0.83 0.56 0.40 0.39 0.48 0.45 0.42 0.47 0.48 0.52 0.53 0.58 0.57 0.55 0.55 0.51 0.51 0.54 0.57 0.61 0.72 0.80 0.93 1.02 1.04 1.11 1.15 1.11 1.03 0.95
0.02 0.02 0.04 0.07 0.19 0.36 0.43 0.45 0.53 0.48 0.55 0.61 0.65 0.71 0.70 0.70 0.67 0.76 0.80 0.80 0.62 0.49 0.59 0.55 0.44 0.43 0.48 0.49 0.55 0.57 0.60 0.65 0.66 0.68 0.63 0.59 0.62 0.68 0.69 0.77 0.85 0.99 1.21 1.20 1.13 1.14 1.14 1.03 0.98
0.02 0.03 0.06 0.14 0.21 0.33 0.51 0.54 0.60 0.56 0.63 0.64 0.75 0.82 0.91 0.92 0.75 0.71 0.75 0.72 0.66 0.56 0.68 0.62 0.50 0.48 0.48 0.55 0.55 0.59 0.64 0.70 0.74 0.79 0.86 0.80 0.67 0.69 0.73 0.82 0.92 1.04 1.22 1.45 1.33 1.19 1.20 1.05 1.03
0.02 0.05 0.08 0.18 0.22 0.25 0.38 0.48 0.55 0.66 0.82 0.73 0.76 0.88 0.93 0.90 0.82 0.80 0.82 0.76 0.60 0.56 0.61 0.60 0.57 0.56 0.55 0.59 0.61 0.69 0.77 0.80 0.80 0.85 0.92 1.00 0.84 0.81 0.83 0.97 1.07 1.15 1.23 1.39 1.61 1.44 1.45 1.33 1.13
0.04 0.10 0.15 0.20 0.25 0.29 0.39 0.45 0.58 0.79 0.84 0.75 0.78 1.06 1.26 1.21 0.99 0.86 0.79 0.74 0.64 0.61 0.65 0.75 0.79 0.83 0.83 0.79 0.79 0.85 0.89 0.93 0.95 0.92 0.93 1.06 1.01 0.96 1.02 1.14 1.22 1.32 1.36 1.43 1.49 1.42 1.53 1.36 1.17
0.06 0.12 0.19 0.25 0.31 0.31 0.37 0.52 0.64 0.79 0.93 0.86 0.88 1.24 1.76 1.75 1.49 1.24 0.93 0.94 0.87 0.75 0.83 0.97 1.10 1.20 1.11 1.04 0.99 1.00 0.98 0.96 1.00 1.10 1.06 1.08 1.15 1.15 1.11 1.20 1.33 1.52 1.60 1.60 1.59 1.50 1.48 1.43 1.34
0.07 0.11 0.18 0.27 0.32 0.40 0.38 0.44 0.69 0.91 1.09 1.18 1.04 1.30 1.75 1.92 1.70 1.44 1.41 1.33 1.20 1.15 1.24 1.22 1.15 1.14 1.16 1.14 1.09 1.14 1.13 1.09 1.10 1.21 1.26 1.18 1.21 1.27 1.30 1.40 1.47 1.52 1.53 1.53 1.61 1.70 1.59 1.43 1.39
0.04 0.09 0.16 0.23 0.35 0.44 0.44 0.52 0.70 0.94 1.17 1.18 1.02 1.36 1.85 1.87 1.64 1.67 1.87 1.81 1.86 2.02 2.26 1.75 1.37 1.22 1.11 1.12 1.22 1.27 1.42 1.38 1.28 1.30 1.40 1.42 1.43 1.47 1.54 1.57 1.59 1.56 1.57 1.53 1.67 1.79 1.81 1.68 1.54
0.05 0.09 0.14 0.23 0.36 0.45 0.47 0.59 0.64 0.67 0.96 0.95 0.87 1.09 1.62 1.65 1.57 1.85 2.26 2.53 2.49 2.74 2.95 2.21 1.72 1.50 1.40 1.39 1.42 1.49 1.65 1.74 1.60 1.49 1.53 1.67 1.81 2.05 2.05 1.83 1.85 1.74 1.77 1.77 1.82 1.89 1.90 1.97 1.96
0.06 0.13 0.17 0.21 0.31 0.42 0.50 0.55 0.68 0.76 0.97 0.98 0.88 0.96 1.20 1.65 1.86 2.15 2.49 3.11 3.13 2.80 2.62 2.35 2.15 1.85 1.70 1.65 1.85 1.94 1.87 1.91 1.77 1.92 1.84 2.00 2.51 2.68 2.36 2.29 2.20 2.06 2.09 2.18 2.21 2.17 2.13 2.03 2.06
0.07 0.18 0.18 0.23 0.33 0.50 0.59 0.64 0.82 1.07 1.19 1.21 1.18 1.29 1.62 1.95 2.11 2.40 2.70 3.17 3.41 3.29 2.80 2.52 2.28 2.19 2.06 2.18 2.38 2.47 2.55 2.57 2.36 2.47 2.43 2.52 2.69 2.64 2.64 2.62 2.49 2.48 2.47 2.68 2.78 2.59 2.31 2.16 2.19
0.09 0.13 0.15 0.28 0.35 0.43 0.61 0.67 0.78 1.04 1.32 1.40 1.43 1.59 2.02 2.28 2.48 2.80 3.02 3.32 3.37 3.46 3.34 2.80 2.62 2.72 2.95 2.99 2.91 2.84 2.83 2.92 2.84 2.84 2.67 2.79 2.90 2.91 2.83 2.86 2.77 2.81 2.75 2.95 2.99 2.95 2.81 2.63 2.45
0.11 0.19 0.20 0.26 0.33 0.44 0.50 0.67 0.75 0.98 1.01 1.19 1.47 1.81 2.03 2.00 2.44 2.94 3.04 3.34 3.45 3.50 3.40 3.09 3.25 3.38 3.46 3.50 3.46 3.20 3.11 3.33 3.34 3.29 3.17 3.17 3.07 2.95 2.96 2.93 2.93 2.81 2.95 3.08 3.15 3.02 2.90 2.83 2.67
0.12 0.13 0.17 0.23 0.27 0.38 0.45 0.60 0.77 1.01 1.11 1.22 1.45 1.62 1.78 2.00 2.49 2.93 3.17 3.55 3.45 3.45 3.68 3.63 3.74 3.64 3.57 3.64 3.81 3.85 3.52 3.64 3.85 3.95 3.79 3.59 3.42 3.34 3.34 3.40 3.35 3.10 3.12 3.24 3.37 3.28 3.16 2.91 2.76
0.14 0.14 0.19 0.25 0.25 0.28 0.39 0.64 0.76 0.94 1.08 1.13 1.28 1.35 1.50 1.98 2.39 2.95 3.33 3.68 3.66 3.67 3.73 3.79 3.69 3.86 3.98 4.01 3.99 4.05 3.94 3.87 4.02 4.21 4.23 3.89 3.60 3.69 3.70 3.82 3.77 3.43 3.38 3.51 3.63 3.63 3.52 3.14 2.85
0.17 0.19 0.29 0.32 0.31 0.31 0.44 0.84 1.01 0.96 0.96 1.09 1.15 1.19 1.41 1.97 2.43 2.80 3.16 3.51 3.56 3.70 4.03 3.98 3.58 3.97 4.19 4.16 4.11 3.90 3.97 4.21 4.40 4.42 4.53 4.22 3.84 3.73 3.91 3.81 3.64 3.57 3.67 3.92 4.10 4.02 3.95 3.74 3.49
0.22 0.27 0.36 0.39 0.36 0.38 0.49 0.87 1.19 1.10 1.00 1.05 1.02 1.09 1.30 1.64 2.18 2.56 2.99 3.39 3.65 3.89 4.37 4.18 3.92 4.09 4.22 4.26 4.32 4.05 4.13 4.45 4.59 4.71 4.72 4.29 3.88 3.82 4.09 4.13 4.10 3.98 4.03 4.14 3.96 4.14 4.03 4.16 3.97
0.27 0.33 0.45 0.49 0.46 0.45 0.58 0.91 1.20 1.30 1.22 1.16 1.11 1.23 1.45 1.51 1.75 2.11 2.67 3.26 3.62 4.19 4.89 4.47 4.06 4.06 4.36 4.37 4.22 4.18 4.31 4.60 4.89 4.95 4.76 4.46 4.31 4.17 4.37 4.33 4.38 4.41 4.50 4.38 4.33 4.38 4.17 4.06 4.00
0.25 0.34 0.44 0.55 0.51 0.54 0.69 1.00 1.25 1.44 1.39 1.22 1.29 1.50 1.51 1.50 1.68 1.93 2.50 3.21 3.61 4.13 4.61 4.58 4.39 4.43 4.50 4.53 4.31 4.44 4.62 4.91 5.19 5.13 5.05 4.93 4.83 4.77 4.87 4.90 4.86 4.70 4.61 4.49 4.39 4.38 4.28 4.01 3.86
0.21 0.31 0.42 0.56 0.54 0.60 0.73 1.04 1.40 1.53 1.52 1.46 1.45 1.69 1.62 1.66 1.89 2.22 2.76 3.13 3.51 3.85 4.11 4.42 4.57 4.59 4.35 4.69 4.99 5.26 5.59 5.61 5.87 6.14 6.17 5.98 5.69 5.51 5.37 5.37 5.04 4.73 4.60 4.46 4.33 4.26 4.12 3.77 3.66
0.19 0.24 0.37 0.47 0.50 0.56 0.74 1.26 1.48 1.62 1.61 1.66 1.74 1.98 1.92 1.95 2.16 2.57 2.94 3.08 3.30 3.65 4.00 4.34 4.69 4.81 4.73 5.17 5.67 6.15 6.52 6.43 6.45 6.42 6.40 6.31 5.90 5.59 5.38 5.15 4.95 4.75 4.58 4.42 4.39 4.30 4.17 3.85 3.65
0.18 0.15 0.22 0.32 0.48 0.67 0.68 1.26 1.55 1.77 1.80 1.68 1.89 2.07 2.12 1.93 1.98 2.33 2.68 3.13 3.12 3.37 3.78 4.11 4.54 4.96 5.26 5.64 6.07 6.60 6.97 7.19 7.00 6.63 6.34 5.98 5.54 5.20 4.84 4.66 4.69 4.58 4.38 4.19 3.90 3.79 3.80 3.74 3.56
0.16 0.13 0.19 0.30 0.41 0.63 0.71 1.09 1.59 1.84 1.92 1.79 1.92 1.97 2.07 1.93 1.90 2.11 2.27 2.63 2.91 3.13 3.48 3.92 4.28 4.68 5.30 6.06 6.61 7.10 7.46 7.49 6.95 6.33 5.73 5.29 4.91 4.57 4.32 4.23 4.35 4.25 4.00 3.83 3.57 3.38 3.23 3.23 3.28
0.12 0.20 0.29 0.40 0.53 0.89 0.75 1.06 1.78 1.94 2.00 2.04 1.99 1.92 1.98 1.96 1.98 2.13 2.25 2.55 2.77 2.87 3.13 3.63 4.19 4.53 5.07 5.83 6.43 6.78 6.97 6.93 6.50 5.84 5.27 4.84 4.38 4.00 3.68 3.46 3.41 3.33 3.17 3.08 3.05 3.01 2.97 2.96 3.01
0.15 0.37 0.72 0.91 0.99 0.95 0.76 1.09 1.87 2.08 1.99 1.98 2.02 2.07 2.16 2.18 2.18 2.16 2.15 2.25 2.52 2.66 2.94 3.40 3.87 4.34 4.69 5.14 5.65 5.70 5.78 5.58 5.21 4.99 4.66 4.15 3.72 3.34 2.97 2.76 2.67 2.64 2.60 2.56 2.60 2.67 2.70 2.66 2.73
0.15 0.33 0.84 1.07 1.06 1.04 1.09 1.66 2.31 2.25 2.10 2.03 1.91 1.90 2.03 2.09 2.02 2.06 2.01 2.21 2.52 2.78 3.02 3.26 3.55 3.92 4.27 4.41 4.52 4.38 4.26 4.20 4.07 3.87 3.51 3.15 2.87 2.67 2.54 2.43 2.28 2.24 2.27 2.27 2.41 2.41 2.32 2.30 2.35
0.17 0.24 0.38 0.59 0.77 1.14 1.52 2.05 2.56 2.55 2.32 2.10 1.98 1.92 1.99 1.92 1.86 1.93 2.03 2.25 2.45 2.74 2.91 3.09 3.22 3.35 3.39 3.38 3.42 3.39 3.31 3.19 3.16 3.08 2.79 2.52 2.36 2.17 2.14 2.10 2.03 1.94 1.90 1.90 1.93 1.91 1.92 1.99 1.97
0.16 0.21 0.33 0.66 1.06 1.39 1.71 2.35 2.88 2.94 2.64 2.12 1.91 1.81 1.88 1.95 1.91 1.93 2.07 2.26 2.18 2.22 2.42 2.66 2.76 2.86 2.83 2.72 2.65 2.74 2.69 2.54 2.40 2.29 2.21 2.07 1.95 1.86 1.83 1.77 1.72 1.74 1.75 1.69 1.61 1.57 1.58 1.66 1.73
0.25 0.32 0.40 0.67 0.85 1.24 1.94 2.71 2.73 3.00 2.87 2.48 2.13 1.88 1.95 2.06 2.01 1.95 2.06 2.12 1.96 1.81 1.82 2.00 2.15 2.36 2.42 2.32 2.25 2.28 2.24 2.16 2.02 1.94 1.90 1.88 1.77 1.71 1.64 1.61 1.59 1.50 1.46 1.47 1.50 1.46 1.47 1.58 1.61
0.28 0.37 0.48 0.85 0.96 0.98 1.80 2.89 2.56 2.61 2.77 2.64 2.37 2.17 2.06 2.06 2.05 1.93 1.94 1.98 1.91 1.77 1.67 1.75 1.89 1.91 1.93 1.93 2.02 2.09 1.99 1.93 1.86 1.82 1.83 1.81 1.67 1.61 1.57 1.56 1.49 1.32 1.25 1.34 1.41 1.38 1.35 1.47 1.48